Time,TemperatureF,DewpointF,PressureIn,WindDirection,WindDirectionDegrees,WindSpeedMPH,WindSpeedGustMPH,Humidity,HourlyPrecipIn,Conditions,Clouds,dailyrainin,SoftwareType,DateUTC
2013-04-28 00:00:00,56.9,41.4,30.18,North,10,1.0,1.0,56,0.00,,,0.00,Wunderground v.1.15,2013-04-28 04:00:00,
2013-04-28 00:05:00,56.7,41.2,30.18,North,10,0.0,1.0,56,0.00,,,0.00,Wunderground v.1.15,2013-04-28 04:05:00,
2013-04-28 00:10:00,56.6,41.1,30.17,North,10,0.0,1.0,56,0.00,,,0.00,Wunderground v.1.15,2013-04-28 04:10:00,
2013-04-28 00:15:00,56.5,41.0,30.18,North,10,0.0,1.0,56,0.00,,,0.00,Wunderground v.1.15,2013-04-28 04:15:00,
2013-04-28 00:20:00,56.4,40.9,30.18,North,10,0.0,0.0,56,0.00,,,0.00,Wunderground v.1.15,2013-04-28 04:20:00,
2013-04-28 00:30:00,56.4,41.3,30.17,North,10,0.0,1.0,57,0.00,,,0.00,Wunderground v.1.15,2013-04-28 04:30:00,
2013-04-28 00:35:00,56.4,40.9,30.17,North,10,0.0,1.0,56,0.00,,,0.00,Wunderground v.1.15,2013-04-28 04:35:00,
2013-04-28 00:45:00,56.4,41.3,30.18,NW,314,0.0,1.0,57,0.00,,,0.00,Wunderground v.1.15,2013-04-28 04:45:00,
2013-04-28 00:55:00,56.1,41.5,30.18,NW,314,0.0,0.0,58,0.00,,,0.00,Wunderground v.1.15,2013-04-28 04:55:00,
2013-04-28 01:05:00,55.8,41.2,30.18,NW,314,0.0,0.0,58,0.00,,,0.00,Wunderground v.1.15,2013-04-28 05:05:00,
2013-04-28 01:15:00,55.4,41.3,30.17,NW,314,0.0,0.0,59,0.00,,,0.00,Wunderground v.1.15,2013-04-28 05:15:00,
2013-04-28 01:25:00,54.7,41.1,30.17,NW,314,0.0,0.0,60,0.00,,,0.00,Wunderground v.1.15,2013-04-28 05:25:00,
2013-04-28 01:30:00,54.4,40.8,30.17,NW,314,0.0,0.0,60,0.00,,,0.00,Wunderground v.1.15,2013-04-28 05:30:00,
2013-04-28 01:40:00,54.0,40.8,30.17,NW,314,0.0,0.0,61,0.00,,,0.00,Wunderground v.1.15,2013-04-28 05:40:00,
2013-04-28 01:50:00,53.5,40.8,30.16,NW,314,0.0,0.0,62,0.00,,,0.00,Wunderground v.1.15,2013-04-28 05:50:00,
2013-04-28 02:00:00,53.2,40.5,30.16,NW,314,0.0,0.0,62,0.00,,,0.00,Wunderground v.1.15,2013-04-28 06:00:00,
2013-04-28 02:05:00,53.1,40.8,30.16,NW,314,0.0,0.0,63,0.00,,,0.00,Wunderground v.1.15,2013-04-28 06:05:00,
2013-04-28 02:15:00,52.9,41.0,30.16,NW,314,0.0,0.0,64,0.00,,,0.00,Wunderground v.1.15,2013-04-28 06:15:00,
2013-04-28 02:20:00,52.8,41.0,30.15,NW,314,0.0,0.0,64,0.00,,,0.00,Wunderground v.1.15,2013-04-28 06:20:00,
2013-04-28 02:30:00,52.8,40.5,30.15,NW,314,0.0,0.0,63,0.00,,,0.00,Wunderground v.1.15,2013-04-28 06:30:00,
2013-04-28 02:40:00,52.4,40.6,30.14,NW,314,0.0,0.0,64,0.00,,,0.00,Wunderground v.1.15,2013-04-28 06:40:00,
2013-04-28 02:50:00,52.3,40.5,30.14,NW,314,0.0,0.0,64,0.00,,,0.00,Wunderground v.1.15,2013-04-28 06:50:00,
2013-04-28 03:00:00,52.1,40.7,30.14,NW,314,0.0,0.0,65,0.00,,,0.00,Wunderground v.1.15,2013-04-28 07:00:00,
2013-04-28 03:05:00,51.8,40.4,30.13,NW,314,0.0,0.0,65,0.00,,,0.00,Wunderground v.1.15,2013-04-28 07:05:00,
2013-04-28 03:15:00,51.5,40.5,30.13,NW,314,0.0,0.0,66,0.00,,,0.00,Wunderground v.1.15,2013-04-28 07:15:00,
2013-04-28 03:25:00,51.1,40.5,30.13,NW,314,0.0,0.0,67,0.00,,,0.00,Wunderground v.1.15,2013-04-28 07:25:00,
2013-04-28 03:35:00,50.7,40.5,30.13,NW,314,0.0,0.0,68,0.00,,,0.00,Wunderground v.1.15,2013-04-28 07:35:00,
2013-04-28 03:45:00,50.3,40.1,30.13,NW,314,0.0,0.0,68,0.00,,,0.00,Wunderground v.1.15,2013-04-28 07:45:00,
2013-04-28 03:55:00,49.9,40.5,30.13,NW,314,0.0,0.0,70,0.00,,,0.00,Wunderground v.1.15,2013-04-28 07:55:00,
2013-04-28 04:05:00,49.7,40.3,30.13,NW,314,0.0,0.0,70,0.00,,,0.00,Wunderground v.1.15,2013-04-28 08:05:00,
2013-04-28 04:15:00,49.5,40.5,30.13,NW,314,0.0,0.0,71,0.00,,,0.00,Wunderground v.1.15,2013-04-28 08:15:00,
2013-04-28 04:25:00,49.1,40.1,30.13,NW,314,0.0,0.0,71,0.00,,,0.00,Wunderground v.1.15,2013-04-28 08:25:00,
2013-04-28 04:35:00,48.8,40.2,30.13,NW,314,0.0,0.0,72,0.00,,,0.00,Wunderground v.1.15,2013-04-28 08:35:00,
2013-04-28 04:45:00,48.6,40.3,30.12,NW,314,0.0,0.0,73,0.00,,,0.00,Wunderground v.1.15,2013-04-28 08:45:00,
2013-04-28 04:50:00,48.4,40.1,30.12,NW,314,0.0,0.0,73,0.00,,,0.00,Wunderground v.1.15,2013-04-28 08:50:00,
2013-04-28 05:00:00,48.1,40.2,30.12,NW,314,0.0,0.0,74,0.00,,,0.00,Wunderground v.1.15,2013-04-28 09:00:00,
2013-04-28 05:05:00,48.0,40.1,30.12,NW,314,0.0,0.0,74,0.00,,,0.00,Wunderground v.1.15,2013-04-28 09:05:00,
2013-04-28 05:15:00,48.1,40.5,30.12,NW,314,0.0,0.0,75,0.00,,,0.00,Wunderground v.1.15,2013-04-28 09:15:00,
2013-04-28 05:20:00,48.1,40.5,30.12,NW,314,0.0,0.0,75,0.00,,,0.00,Wunderground v.1.15,2013-04-28 09:20:00,
2013-04-28 05:30:00,48.1,40.5,30.12,NW,314,0.0,0.0,75,0.00,,,0.00,Wunderground v.1.15,2013-04-28 09:30:00,
2013-04-28 05:40:00,48.1,40.9,30.12,NW,315,0.0,0.0,76,0.00,,,0.00,Wunderground v.1.15,2013-04-28 09:40:00,
2013-04-28 05:50:00,47.9,41.4,30.12,NW,315,0.0,0.0,78,0.00,,,0.00,Wunderground v.1.15,2013-04-28 09:50:00,
2013-04-28 06:00:00,47.6,41.4,30.12,NW,314,0.0,0.0,79,0.00,,,0.00,Wunderground v.1.15,2013-04-28 10:00:00,
2013-04-28 06:05:00,47.4,41.5,30.12,NW,314,0.0,0.0,80,0.00,,,0.00,Wunderground v.1.15,2013-04-28 10:05:00,
2013-04-28 06:15:00,47.3,41.8,30.13,NW,315,0.0,0.0,81,0.00,,,0.00,Wunderground v.1.15,2013-04-28 10:15:00,
2013-04-28 06:25:00,47.4,41.9,30.12,NW,315,0.0,0.0,81,0.00,,,0.00,Wunderground v.1.15,2013-04-28 10:25:00,
2013-04-28 06:35:00,47.4,41.9,30.12,NW,315,0.0,0.0,81,0.00,,,0.00,Wunderground v.1.15,2013-04-28 10:35:00,
2013-04-28 06:45:00,47.3,41.8,30.12,NW,314,0.0,0.0,81,0.00,,,0.00,Wunderground v.1.15,2013-04-28 10:45:00,
2013-04-28 06:55:00,47.4,42.2,30.13,NW,315,0.0,1.0,82,0.00,,,0.00,Wunderground v.1.15,2013-04-28 10:55:00,
2013-04-28 07:00:00,47.6,42.1,30.12,NW,315,0.0,0.0,81,0.00,,,0.00,Wunderground v.1.15,2013-04-28 11:00:00,
2013-04-28 07:05:00,47.7,42.5,30.13,ESE,107,0.0,0.0,82,0.00,,,0.00,Wunderground v.1.15,2013-04-28 11:05:00,
2013-04-28 07:15:00,47.9,42.7,30.12,ENE,68,0.0,1.0,82,0.00,,,0.00,Wunderground v.1.15,2013-04-28 11:15:00,
2013-04-28 07:25:00,48.2,42.6,30.12,ENE,59,1.0,3.0,81,0.00,,,0.00,Wunderground v.1.15,2013-04-28 11:25:00,
2013-04-28 07:30:00,48.4,43.2,30.12,SE,139,1.0,1.0,82,0.00,,,0.00,Wunderground v.1.15,2013-04-28 11:30:00,
2013-04-28 07:40:00,48.4,43.5,30.13,ESE,102,0.0,0.0,83,0.00,,,0.00,Wunderground v.1.15,2013-04-28 11:40:00,
2013-04-28 07:45:00,48.4,43.2,30.13,SSE,154,0.0,0.0,82,0.00,,,0.00,Wunderground v.1.15,2013-04-28 11:45:00,
2013-04-28 07:55:00,48.7,43.8,30.12,East,99,0.0,1.0,83,0.00,,,0.00,Wunderground v.1.15,2013-04-28 11:55:00,
2013-04-28 08:05:00,49.6,44.3,30.12,SE,127,1.0,1.0,82,0.00,,,0.00,Wunderground v.1.15,2013-04-28 12:05:00,
2013-04-28 08:15:00,50.1,44.8,30.12,ESE,110,1.0,1.0,82,0.00,,,0.00,Wunderground v.1.15,2013-04-28 12:15:00,
2013-04-28 08:25:00,50.8,45.2,30.12,ESE,122,0.0,0.0,81,0.00,,,0.00,Wunderground v.1.15,2013-04-28 12:25:00,
2013-04-28 08:35:00,51.7,44.0,30.12,ESE,106,1.0,1.0,75,0.00,,,0.00,Wunderground v.1.15,2013-04-28 12:35:00,
2013-04-28 08:45:00,52.7,43.9,30.12,ENE,65,2.0,2.0,72,0.00,,,0.00,Wunderground v.1.15,2013-04-28 12:45:00,
2013-04-28 08:55:00,53.3,44.1,30.12,ESE,120,2.0,2.0,71,0.00,,,0.00,Wunderground v.1.15,2013-04-28 12:55:00,
2013-04-28 09:05:00,53.5,44.3,30.12,East,100,2.0,2.0,71,0.00,,,0.00,Wunderground v.1.15,2013-04-28 13:05:00,
2013-04-28 09:15:00,53.6,44.0,30.12,East,85,2.0,4.0,70,0.00,,,0.00,Wunderground v.1.15,2013-04-28 13:15:00,
2013-04-28 09:25:00,53.6,44.0,30.12,NE,56,2.0,2.0,70,0.00,,,0.00,Wunderground v.1.15,2013-04-28 13:25:00,
2013-04-28 09:35:00,53.7,44.5,30.12,NE,38,1.0,2.0,71,0.00,,,0.00,Wunderground v.1.15,2013-04-28 13:35:00,
2013-04-28 09:45:00,53.7,44.5,30.12,North,350,1.0,1.0,71,0.00,,,0.00,Wunderground v.1.15,2013-04-28 13:45:00,
2013-04-28 09:55:00,53.8,45.0,30.12,ESE,104,0.0,1.0,72,0.00,,,0.00,Wunderground v.1.15,2013-04-28 13:55:00,
2013-04-28 10:00:00,53.9,45.1,30.12,ENE,60,0.0,0.0,72,0.00,,,0.00,Wunderground v.1.15,2013-04-28 14:00:00,
2013-04-28 10:05:00,54.0,45.2,30.12,NNE,31,1.0,1.0,72,0.00,,,0.00,Wunderground v.1.15,2013-04-28 14:05:00,
2013-04-28 10:15:00,54.0,46.3,30.12,NE,49,0.0,1.0,75,0.00,,,0.00,Wunderground v.1.15,2013-04-28 14:15:00,
2013-04-28 10:25:00,54.0,46.6,30.12,NE,48,0.0,0.0,76,0.00,,,0.00,Wunderground v.1.15,2013-04-28 14:25:00,
2013-04-28 10:35:00,53.7,47.3,30.13,NE,49,0.0,0.0,79,0.00,,,0.00,Wunderground v.1.15,2013-04-28 14:35:00,
2013-04-28 10:45:00,53.4,48.4,30.13,NE,52,0.0,0.0,83,0.00,,,0.01,Wunderground v.1.15,2013-04-28 14:45:00,
2013-04-28 10:55:00,53.1,47.7,30.13,NE,52,0.0,0.0,82,0.04,,,0.02,Wunderground v.1.15,2013-04-28 14:55:00,
2013-04-28 11:00:00,53.0,48.3,30.13,NE,52,0.0,0.0,84,0.04,,,0.02,Wunderground v.1.15,2013-04-28 15:00:00,
2013-04-28 11:05:00,52.8,48.1,30.13,NE,52,0.0,0.0,84,0.04,,,0.02,Wunderground v.1.15,2013-04-28 15:05:00,
2013-04-28 11:15:00,52.7,48.3,30.13,NE,52,0.0,0.0,85,0.04,,,0.03,Wunderground v.1.15,2013-04-28 15:15:00,
2013-04-28 11:25:00,52.7,48.9,30.13,NE,50,1.0,1.0,87,0.06,,,0.04,Wunderground v.1.15,2013-04-28 15:25:00,
2013-04-28 11:30:00,52.7,49.2,30.13,NE,53,1.0,1.0,88,0.06,,,0.05,Wunderground v.1.15,2013-04-28 15:30:00,
2013-04-28 11:40:00,52.7,49.5,30.12,NE,50,1.0,1.0,89,0.07,,,0.06,Wunderground v.1.15,2013-04-28 15:40:00,
2013-04-28 11:50:00,52.8,49.6,30.12,ESE,104,1.0,1.0,89,0.06,,,0.07,Wunderground v.1.15,2013-04-28 15:50:00,
2013-04-28 12:00:00,52.6,49.4,30.12,East,89,2.0,2.0,89,0.06,,,0.08,Wunderground v.1.15,2013-04-28 16:00:00,
2013-04-28 12:05:00,52.6,49.8,30.12,ENE,70,2.0,2.0,90,0.06,,,0.09,Wunderground v.1.15,2013-04-28 16:05:00,
2013-04-28 12:15:00,52.5,49.7,30.12,ENE,66,1.0,2.0,90,0.07,,,0.11,Wunderground v.1.15,2013-04-28 16:15:00,
2013-04-28 12:20:00,52.5,49.7,30.12,ENE,64,1.0,1.0,90,0.07,,,0.11,Wunderground v.1.15,2013-04-28 16:20:00,
2013-04-28 12:30:00,52.3,49.8,30.11,NE,46,1.0,2.0,91,0.09,,,0.13,Wunderground v.1.15,2013-04-28 16:30:00,
2013-04-28 12:40:00,52.2,49.7,30.10,ENE,66,2.0,2.0,91,0.09,,,0.15,Wunderground v.1.15,2013-04-28 16:40:00,
2013-04-28 12:50:00,52.3,50.0,30.10,NE,52,2.0,4.0,92,0.11,,,0.16,Wunderground v.1.15,2013-04-28 16:50:00,
2013-04-28 13:00:00,52.3,50.0,30.10,NE,46,2.0,2.0,92,0.08,,,0.18,Wunderground v.1.15,2013-04-28 17:00:00,
2013-04-28 13:10:00,52.5,50.5,30.09,ENE,73,2.0,2.0,93,0.06,,,0.19,Wunderground v.1.15,2013-04-28 17:10:00,
2013-04-28 13:20:00,52.7,50.7,30.09,East,87,1.0,1.0,93,0.07,,,0.20,Wunderground v.1.15,2013-04-28 17:20:00,
2013-04-28 13:25:00,52.8,50.8,30.09,East,84,1.0,1.0,93,0.08,,,0.21,Wunderground v.1.15,2013-04-28 17:25:00,
2013-04-28 13:35:00,53.1,51.4,30.09,NE,39,1.0,5.0,94,0.09,,,0.22,Wunderground v.1.15,2013-04-28 17:35:00,
2013-04-28 13:45:00,53.1,51.4,30.08,East,87,2.0,2.0,94,0.11,,,0.24,Wunderground v.1.15,2013-04-28 17:45:00,
2013-04-28 13:55:00,53.2,51.5,30.08,SSE,151,2.0,2.0,94,0.10,,,0.25,Wunderground v.1.15,2013-04-28 17:55:00,
2013-04-28 14:05:00,53.4,51.7,30.09,ESE,108,2.0,3.0,94,0.09,,,0.27,Wunderground v.1.15,2013-04-28 18:05:00,
2013-04-28 14:15:00,53.5,51.5,30.09,ESE,123,4.0,4.0,93,0.09,,,0.28,Wunderground v.1.15,2013-04-28 18:15:00,
2013-04-28 14:20:00,53.5,51.5,30.08,South,185,2.0,4.0,93,0.07,,,0.29,Wunderground v.1.15,2013-04-28 18:20:00,
2013-04-28 14:30:00,53.5,51.2,30.08,South,180,2.0,2.0,92,0.08,,,0.30,Wunderground v.1.15,2013-04-28 18:30:00,
2013-04-28 14:40:00,53.4,51.1,30.08,NE,50,2.0,5.0,92,0.07,,,0.32,Wunderground v.1.15,2013-04-28 18:40:00,
2013-04-28 14:50:00,53.5,51.2,30.08,East,85,2.0,5.0,92,0.06,,,0.32,Wunderground v.1.15,2013-04-28 18:50:00,
2013-04-28 15:00:00,53.6,51.3,30.07,SSE,152,1.0,1.0,92,0.00,,,0.32,Wunderground v.1.15,2013-04-28 19:00:00,
2013-04-28 15:05:00,53.6,51.3,30.07,SSE,148,1.0,1.0,92,0.00,,,0.32,Wunderground v.1.15,2013-04-28 19:05:00,
2013-04-28 15:15:00,53.6,51.3,30.07,East,93,0.0,1.0,92,0.00,,,0.32,Wunderground v.1.15,2013-04-28 19:15:00,
2013-04-28 15:25:00,53.6,51.0,30.07,SSW,194,1.0,1.0,91,0.00,,,0.32,Wunderground v.1.15,2013-04-28 19:25:00,
2013-04-28 15:30:00,53.6,51.0,30.06,East,91,1.0,3.0,91,0.00,,,0.32,Wunderground v.1.15,2013-04-28 19:30:00,
2013-04-28 15:40:00,53.5,50.6,30.06,East,95,2.0,2.0,90,0.00,,,0.32,Wunderground v.1.15,2013-04-28 19:40:00,
2013-04-28 15:50:00,53.5,50.6,30.05,ENE,66,3.0,3.0,90,0.00,,,0.32,Wunderground v.1.15,2013-04-28 19:50:00,
2013-04-28 16:00:00,53.4,50.8,30.05,ENE,62,2.0,4.0,91,0.00,,,0.32,Wunderground v.1.15,2013-04-28 20:00:00,
2013-04-28 16:05:00,53.4,50.8,30.05,East,79,1.0,4.0,91,0.00,,,0.32,Wunderground v.1.15,2013-04-28 20:05:00,
2013-04-28 16:15:00,53.4,50.8,30.05,ESE,116,1.0,1.0,91,0.00,,,0.32,Wunderground v.1.15,2013-04-28 20:15:00,
2013-04-28 16:25:00,53.2,50.0,30.06,SE,131,2.0,2.0,89,0.00,,,0.32,Wunderground v.1.15,2013-04-28 20:25:00,
2013-04-28 16:30:00,53.2,50.3,30.06,ENE,68,1.0,3.0,90,0.00,,,0.32,Wunderground v.1.15,2013-04-28 20:30:00,
2013-04-28 16:40:00,53.2,50.0,30.05,South,190,2.0,2.0,89,0.00,,,0.32,Wunderground v.1.15,2013-04-28 20:40:00,
2013-04-28 16:50:00,53.0,49.8,30.05,SE,143,2.0,2.0,89,0.00,,,0.32,Wunderground v.1.15,2013-04-28 20:50:00,
2013-04-28 16:55:00,53.0,49.5,30.05,NE,39,2.0,2.0,88,0.00,,,0.32,Wunderground v.1.15,2013-04-28 20:55:00,
2013-04-28 17:05:00,52.9,49.7,30.05,SW,235,2.0,3.0,89,0.00,,,0.32,Wunderground v.1.15,2013-04-28 21:05:00,
2013-04-28 17:15:00,52.8,49.6,30.05,ENE,68,1.0,3.0,89,0.00,,,0.32,Wunderground v.1.15,2013-04-28 21:15:00,
2013-04-28 17:25:00,52.8,49.3,30.05,South,183,1.0,2.0,88,0.00,,,0.32,Wunderground v.1.15,2013-04-28 21:25:00,
2013-04-28 17:35:00,52.8,49.3,30.05,ENE,65,2.0,3.0,88,0.00,,,0.32,Wunderground v.1.15,2013-04-28 21:35:00,
2013-04-28 17:45:00,52.8,49.3,30.05,ESE,107,1.0,2.0,88,0.00,,,0.32,Wunderground v.1.15,2013-04-28 21:45:00,
2013-04-28 17:50:00,52.8,49.3,30.05,East,83,1.0,5.0,88,0.00,,,0.32,Wunderground v.1.15,2013-04-28 21:50:00,
2013-04-28 18:00:00,52.7,49.2,30.05,East,93,1.0,1.0,88,0.00,,,0.32,Wunderground v.1.15,2013-04-28 22:00:00,
2013-04-28 18:05:00,52.8,49.6,30.04,East,101,1.0,1.0,89,0.00,,,0.32,Wunderground v.1.15,2013-04-28 22:05:00,
2013-04-28 18:15:00,52.8,49.6,30.03,ENE,78,2.0,3.0,89,0.00,,,0.32,Wunderground v.1.15,2013-04-28 22:15:00,
2013-04-28 18:20:00,52.7,49.8,30.03,ESE,117,1.0,1.0,90,0.00,,,0.32,Wunderground v.1.15,2013-04-28 22:20:00,
2013-04-28 18:30:00,52.6,49.8,30.03,NE,52,1.0,1.0,90,0.00,,,0.32,Wunderground v.1.15,2013-04-28 22:30:00,
2013-04-28 18:40:00,52.4,49.3,30.03,ESE,114,2.0,2.0,89,0.00,,,0.32,Wunderground v.1.15,2013-04-28 22:40:00,
2013-04-28 18:50:00,52.4,49.3,30.03,ESE,105,2.0,2.0,89,0.00,,,0.32,Wunderground v.1.15,2013-04-28 22:50:00,
2013-04-28 19:00:00,52.5,49.4,30.03,ENE,60,0.0,1.0,89,0.00,,,0.32,Wunderground v.1.15,2013-04-28 23:00:00,
2013-04-28 19:05:00,52.4,49.3,30.03,ENE,60,0.0,1.0,89,0.00,,,0.32,Wunderground v.1.15,2013-04-28 23:05:00,
2013-04-28 19:15:00,52.4,49.6,30.03,ENE,61,0.0,0.0,90,0.00,,,0.32,Wunderground v.1.15,2013-04-28 23:15:00,
2013-04-28 19:25:00,52.3,49.5,30.02,East,88,1.0,3.0,90,0.00,,,0.32,Wunderground v.1.15,2013-04-28 23:25:00,
2013-04-28 19:30:00,52.3,49.5,30.02,NE,39,1.0,2.0,90,0.00,,,0.32,Wunderground v.1.15,2013-04-28 23:30:00,
2013-04-28 19:40:00,52.1,49.3,30.03,NE,36,2.0,2.0,90,0.00,,,0.32,Wunderground v.1.15,2013-04-28 23:40:00,
2013-04-28 19:50:00,52.1,49.3,30.03,ESE,108,2.0,3.0,90,0.00,,,0.32,Wunderground v.1.15,2013-04-28 23:50:00,
2013-04-28 19:55:00,52.1,48.7,30.03,East,81,2.0,3.0,88,0.00,,,0.32,Wunderground v.1.15,2013-04-28 23:55:00,
2013-04-28 20:05:00,52.2,48.8,30.04,SSE,160,1.0,2.0,88,0.00,,,0.32,Wunderground v.1.15,2013-04-29 00:05:00,
2013-04-28 20:15:00,52.2,48.4,30.04,East,100,1.0,3.0,87,0.00,,,0.32,Wunderground v.1.15,2013-04-29 00:15:00,
2013-04-28 20:25:00,52.2,48.1,30.05,ENE,70,1.0,3.0,86,0.00,,,0.32,Wunderground v.1.15,2013-04-29 00:25:00,
2013-04-28 20:35:00,52.4,47.4,30.05,SE,127,1.0,2.0,83,0.00,,,0.32,Wunderground v.1.15,2013-04-29 00:35:00,
2013-04-28 20:45:00,52.7,47.0,30.05,South,187,1.0,1.0,81,0.00,,,0.32,Wunderground v.1.15,2013-04-29 00:45:00,
2013-04-28 20:50:00,52.8,47.1,30.05,SSE,150,1.0,1.0,81,0.00,,,0.32,Wunderground v.1.15,2013-04-29 00:50:00,
2013-04-28 21:00:00,52.9,47.2,30.05,NE,56,1.0,1.0,81,0.00,,,0.32,Wunderground v.1.15,2013-04-29 01:00:00,
2013-04-28 21:05:00,52.8,47.1,30.05,ENE,61,1.0,1.0,81,0.00,,,0.32,Wunderground v.1.15,2013-04-29 01:05:00,
2013-04-28 21:15:00,52.8,47.1,30.05,South,170,1.0,2.0,81,0.00,,,0.32,Wunderground v.1.15,2013-04-29 01:15:00,
2013-04-28 21:25:00,52.8,47.1,30.05,ENE,75,1.0,4.0,81,0.00,,,0.32,Wunderground v.1.15,2013-04-29 01:25:00,
2013-04-28 21:35:00,52.8,46.8,30.05,SE,129,1.0,1.0,80,0.00,,,0.32,Wunderground v.1.15,2013-04-29 01:35:00,
2013-04-28 21:45:00,52.8,47.1,30.05,SSE,149,1.0,3.0,81,0.00,,,0.32,Wunderground v.1.15,2013-04-29 01:45:00,
2013-04-28 21:55:00,52.8,47.1,30.05,SSE,152,1.0,2.0,81,0.00,,,0.32,Wunderground v.1.15,2013-04-29 01:55:00,
2013-04-28 22:05:00,52.9,46.9,30.05,East,81,1.0,1.0,80,0.00,,,0.32,Wunderground v.1.15,2013-04-29 02:05:00,
2013-04-28 22:15:00,53.0,47.0,30.05,WNW,286,1.0,1.0,80,0.00,,,0.32,Wunderground v.1.15,2013-04-29 02:15:00,
2013-04-28 22:25:00,53.1,47.1,30.05,East,94,1.0,2.0,80,0.00,,,0.32,Wunderground v.1.15,2013-04-29 02:25:00,
2013-04-28 22:35:00,53.1,47.1,30.05,South,189,1.0,1.0,80,0.00,,,0.32,Wunderground v.1.15,2013-04-29 02:35:00,
2013-04-28 22:40:00,53.1,47.1,30.05,SE,142,0.0,0.0,80,0.00,,,0.32,Wunderground v.1.15,2013-04-29 02:40:00,
2013-04-28 22:50:00,53.0,47.3,30.05,North,359,1.0,1.0,81,0.00,,,0.32,Wunderground v.1.15,2013-04-29 02:50:00,
2013-04-28 23:00:00,52.8,47.1,30.05,East,98,0.0,1.0,81,0.00,,,0.32,Wunderground v.1.15,2013-04-29 03:00:00,
2013-04-28 23:05:00,52.8,47.1,30.04,SE,126,1.0,1.0,81,0.00,,,0.32,Wunderground v.1.15,2013-04-29 03:05:00,
2013-04-28 23:15:00,52.9,47.2,30.05,ESE,110,0.0,1.0,81,0.00,,,0.32,Wunderground v.1.15,2013-04-29 03:15:00,
2013-04-28 23:25:00,52.9,47.6,30.04,SE,134,0.0,1.0,82,0.00,,,0.32,Wunderground v.1.15,2013-04-29 03:25:00,
2013-04-28 23:30:00,52.9,47.6,30.04,North,349,1.0,1.0,82,0.00,,,0.32,Wunderground v.1.15,2013-04-29 03:30:00,
2013-04-28 23:40:00,53.0,47.7,30.04,ESE,114,0.0,0.0,82,0.00,,,0.32,Wunderground v.1.15,2013-04-29 03:40:00,
2013-04-28 23:50:00,53.0,47.3,30.04,East,98,1.0,1.0,81,0.00,,,0.32,Wunderground v.1.15,2013-04-29 03:50:00,
2013-04-28 23:55:00,53.0,47.7,30.04,ENE,57,1.0,1.0,82,0.00,,,0.32,Wunderground v.1.15,2013-04-29 03:55:00,